Showing default

BEIDOU 3M14, 43623

Orbit data source: Space-Track

BEIDOU 3M14, 43623 is a payload satellite owned by CNSA (CN) in MEO that was launched on Wed, 19 Sep 2018 UTC via a CHANG ZHENG 3B/YZ-1 launch vehicle from the Xichang Space Center, China (XSC). Payload-class satellites include a variety of spacecraft equipped with specific instruments for various scientific and technological missions. These include communications satellites like Starlink; space stations such as the ISS; scientific satellites like the Hubble; Earth observation satellites from companies like Planet Labs, Umbra, and HawkEye 360; GPS; miniature CubeSats for education and research; and military/defense satellites.

Loading next visibility...
Identifier
43623, 2018-072B
Orbit
MEO
Country
Flag of CNCN / PRC
Related business
Manufacturer
CAST
Mission
Operational Defense Navigation
Bus & Motor
BD-3M/SAR, Unknown motor
Mass
1,014 kg wet, ~850 kg dry
Launch date (UTC)
2018-09-19 (8 years ago)
Launch vehicle
CHANG ZHENG 3B/YZ-1
Launch site
Xichang Space Center, China (XSC)
Object type
Payload
Rocket body
Debris
Shape & HBR
Box + 2 Pan, 5.0 m
Radar Cross Section
8.984 m², Large (>1 m²)

Expand to show TLE details & history
Last TLE update: 1 day ago

TLE from 1 day ago
0 BEIDOU 3M14
1 43623U 18072B   26172.15997682 -.00000080  00000-0  00000+0 0  9999
2 43623  56.6300  62.5228 0006120   1.7619 358.2786  1.86231110 52726
Epoch: 2026-06-21T03:50Z
TLE epoch observation values (Epoch: 2026-06-21T03:50:21.997Z)
Latitude
-0.00003°
Longitude
95.58203°
Altitude
21,511.282 km
Speed
3.782 km/s
True Right ascension
04h 10m 09s
True Declination
0° 00' 00"
Sunlit
Object was in daylight at epoch
Visualization orbit readout
Latitude
Unknown
Longitude
Unknown
Altitude
Unknown
Speed
Unknown
Apparent Right ascension
Unknown
Apparent Declination
Unknown
Sunlit
N/A
Visualization observer readout
Local Sidereal Time
21:42:04
Azimuth
Unknown
Elevation
Unknown
Doppler factor
Unknown
Orbital elements
Apogee altitude
21,545.063 km
Perigee altitude
21,510.906 km
Semi-major axis
27,906.122 km
Eccentricity
0.00061
Inclination
56.63°
RAAN
62.5228°
Arg. of periapsis
1.7619°
True anomaly
358.27649°
Mean anomaly
358.2786°
Eccentric anomaly
358.27755°
Mean motion
0.46558 °/min
Orbital period
773.23 mins
BSTAR
0
Loading maneuver chart data...
Computing Atmospheric mass density...
Loading historical data...
Loading historical data...
Loading historical data...
Loading historical data...
Loading historical data...
Loading historical data...
Loading historical data...
Other satellites on launch #72 in the year 2018 (2018-09-19 UTC)

Documentation

Showing up to 5 results
|